contact:dominique.lefevre@mio.osupytheas.fr, maurice.libes@osupytheas.fr, didier.mallarino@osupytheas.fr
Project:EMSO http://www.emso-fr.org/EMSO-France
Depth: 2436.0 m
Title:EMSO Ligure Ouest : Data MII capteur AQUADOPP
Date,Latitude,Longitude,X_East,Y_North,Z_Up,Amplitude_X,Amplitude_Y,Amplitude_Z,Batterie,SoundSpeed,Heading,Pitch,Roll,Pressure,TIS,Speed,Direction
, degrees North, degrees East, m.s-1, m.s-1,m.s-1, 1, 1, 1, Volt, m.s-1, degree, degree, degree, dbar, degree_C, m.s-1, degree
2022-04-25T00:04:03,42.805,6.029,-0.006,-0.007,-0.007,101.0,103.0,103.0,13.3,1505.2,328.8,-0.8,1.8,2471.012,13.29,0.009,220.6
2022-04-25T00:07:03,42.805,6.029,-0.012,-0.005,0.021,102.0,105.0,100.0,13.4,1505.2,325.5,-0.8,1.8,2470.978,13.29,0.013,247.4
2022-04-25T00:10:03,42.805,6.029,-0.019,-0.005,-0.035,103.0,109.0,100.0,13.4,1505.2,330.1,-0.7,1.8,2470.939,13.29,0.019,255.3
2022-04-25T00:13:03,42.805,6.029,0.002,-0.002,0.036,103.0,101.0,102.0,13.4,1505.2,327.2,-0.8,1.8,2470.939,13.29,0.002,135.0
2022-04-25T00:16:03,42.805,6.029,0.004,-0.014,0.038,100.0,103.0,100.0,13.4,1505.2,325.1,-0.7,1.8,2470.941,13.29,0.014,164.1
2022-04-25T00:19:03,42.805,6.029,0.001,-0.021,-0.017,105.0,102.0,101.0,13.4,1505.2,323.7,-0.8,1.8,2470.906,13.29,0.021,177.3
2022-04-25T00:22:03,42.805,6.029,0.005,-0.007,-0.024,103.0,102.0,103.0,13.4,1505.2,327.6,-0.8,1.8,2470.927,13.29,0.008,144.5
2022-04-25T00:25:03,42.805,6.029,0.014,-0.018,0.008,103.0,102.0,100.0,13.3,1505.2,328.2,-0.7,1.8,2470.941,13.29,0.022,142.1
2022-04-25T00:28:03,42.805,6.029,-0.003,-0.029,-0.018,104.0,101.0,100.0,13.3,1505.2,330.2,-0.8,1.8,2470.959,13.29,0.029,185.9
2022-04-25T00:31:03,42.805,6.029,-0.028,-0.023,-0.028,105.0,103.0,102.0,13.3,1505.2,326.4,-0.8,1.8,2470.954,13.29,0.036,230.6
2022-04-25T00:34:03,42.805,6.029,-0.008,0.0,-0.024,101.0,104.0,101.0,13.4,1505.2,325.0,-0.8,1.8,2470.905,13.29,0.008,270.0
2022-04-25T00:37:03,42.805,6.029,0.014,-0.011,-0.013,104.0,103.0,100.0,13.4,1505.2,324.3,-0.8,1.8,2470.88,13.29,0.017,128.2
2022-04-25T00:40:03,42.805,6.029,-0.002,-0.002,0.031,105.0,106.0,101.0,13.4,1505.2,329.8,-0.8,1.8,2470.897,13.29,0.002,225.0
2022-04-25T00:43:03,42.805,6.029,-0.013,-0.005,0.017,102.0,104.0,101.0,13.3,1505.2,328.3,-0.8,1.8,2470.877,13.29,0.013,249.0
2022-04-25T00:46:03,42.805,6.029,0.027,-0.023,-0.011,102.0,105.0,101.0,13.4,1505.2,322.0,-0.8,1.8,2470.88,13.29,0.035,130.4
2022-04-25T00:49:03,42.805,6.029,-0.031,-0.017,0.0,102.0,104.0,102.0,13.4,1505.2,326.5,-0.8,1.8,2470.884,13.3,0.035,241.3
2022-04-25T00:52:03,42.805,6.029,-0.008,-0.014,0.008,101.0,105.0,100.0,13.4,1505.2,324.9,-0.7,1.8,2470.894,13.29,0.016,209.7
2022-04-25T00:55:03,42.805,6.029,-0.017,-0.008,-0.047,103.0,104.0,101.0,13.4,1505.2,333.2,-0.7,1.8,2470.885,13.29,0.018,244.8
2022-04-25T00:58:03,42.805,6.029,-0.041,-0.022,-0.04,101.0,102.0,100.0,13.4,1505.2,329.1,-0.8,1.8,2470.894,13.29,0.046,241.8
2022-04-25T01:04:03,42.805,6.029,-0.013,-0.014,-0.011,107.0,106.0,103.0,13.4,1505.2,328.5,-0.8,1.8,2470.955,13.29,0.019,222.9
2022-04-25T01:07:03,42.805,6.029,-0.007,-0.008,-0.006,102.0,101.0,101.0,13.4,1505.2,328.8,-0.8,1.8,2470.933,13.29,0.01,221.2
2022-04-25T01:10:03,42.805,6.029,0.009,-0.017,0.022,104.0,100.0,100.0,13.3,1505.2,326.7,-0.8,1.8,2470.853,13.29,0.019,152.1
2022-04-25T01:13:03,42.805,6.029,0.012,-0.024,0.024,103.0,103.0,101.0,13.4,1505.2,329.1,-0.7,1.8,2470.941,13.29,0.026,153.4
2022-04-25T01:16:03,42.805,6.029,-0.006,0.0,0.017,102.0,103.0,101.0,13.4,1505.2,325.0,-0.7,1.8,2470.871,13.29,0.006,270.0
2022-04-25T01:19:03,42.805,6.029,0.001,-0.007,-0.015,103.0,102.0,102.0,13.3,1505.2,324.5,-0.8,1.8,2470.902,13.29,0.007,171.9
2022-04-25T01:22:03,42.805,6.029,-0.015,-0.023,-0.005,103.0,104.0,100.0,13.4,1505.2,328.6,-0.8,1.8,2470.906,13.29,0.027,213.1
2022-04-25T01:25:03,42.805,6.029,0.002,-0.022,-0.002,102.0,101.0,102.0,13.4,1505.2,324.7,-0.7,1.8,2470.914,13.29,0.022,174.8
2022-04-25T01:28:03,42.805,6.029,-0.005,-0.02,0.012,103.0,104.0,101.0,13.4,1505.2,329.5,-0.8,1.8,2470.893,13.29,0.02,194.0
2022-04-25T01:31:03,42.805,6.029,-0.009,-0.031,-0.007,103.0,102.0,102.0,13.4,1505.2,329.6,-0.8,1.8,2470.908,13.29,0.032,196.2
2022-04-25T01:34:03,42.805,6.029,0.01,-0.005,0.005,101.0,102.0,102.0,13.4,1505.2,325.7,-0.8,1.8,2470.898,13.29,0.011,116.6
2022-04-25T01:37:03,42.805,6.029,-0.002,-0.003,0.015,101.0,105.0,101.0,13.3,1505.2,324.7,-0.7,1.8,2470.873,13.29,0.003,213.7
2022-04-25T01:40:03,42.805,6.029,0.0,-0.01,-0.009,101.0,102.0,103.0,13.3,1505.2,324.2,-0.8,1.8,2470.904,13.29,0.01,180.0
2022-04-25T01:43:03,42.805,6.029,-0.016,-0.013,0.003,101.0,102.0,102.0,13.4,1505.2,325.5,-0.8,1.8,2470.918,13.29,0.02,230.9
2022-04-25T01:46:03,42.805,6.029,-0.009,-0.01,-0.005,103.0,103.0,102.0,13.4,1505.2,324.0,-0.8,1.8,2470.915,13.29,0.013,222.0
2022-04-25T01:49:03,42.805,6.029,0.004,-0.014,0.016,103.0,104.0,100.0,13.4,1505.2,330.9,-0.8,1.8,2470.916,13.29,0.014,164.1
2022-04-25T01:52:03,42.805,6.029,-0.002,-0.008,-0.015,103.0,102.0,101.0,13.4,1505.2,330.3,-0.8,1.8,2470.928,13.29,0.008,194.0
2022-04-25T01:55:03,42.805,6.029,0.012,-0.014,0.017,103.0,99.0,100.0,13.4,1505.2,330.0,-0.8,1.8,2470.905,13.29,0.018,139.4
2022-04-25T01:58:03,42.805,6.029,0.012,-0.039,-0.018,103.0,101.0,100.0,13.3,1505.2,322.2,-0.7,1.8,2470.897,13.29,0.04,162.9
2022-04-25T02:04:03,42.805,6.029,0.011,-0.033,-0.025,105.0,104.0,101.0,13.4,1505.2,333.0,-0.8,1.8,2470.925,13.29,0.034,161.6
2022-04-25T02:07:03,42.805,6.029,-0.029,-0.02,-0.026,101.0,102.0,101.0,13.4,1505.2,330.9,-0.7,1.8,2470.874,13.29,0.035,235.4
2022-04-25T02:10:03,42.805,6.029,-0.034,-0.005,0.003,102.0,101.0,102.0,13.4,1505.2,326.8,-0.7,1.8,2470.937,13.29,0.034,261.6
2022-04-25T02:13:03,42.805,6.029,-0.015,-0.016,-0.007,105.0,102.0,101.0,13.4,1505.2,331.5,-0.8,1.8,2470.915,13.29,0.021,223.1
2022-04-25T02:16:03,42.805,6.029,-0.015,-0.006,-0.018,102.0,103.0,101.0,13.4,1505.2,325.9,-0.8,1.8,2470.945,13.29,0.016,248.2
2022-04-25T02:19:03,42.805,6.029,-0.013,-0.024,0.026,101.0,102.0,102.0,13.4,1505.2,328.2,-0.7,1.8,2470.914,13.29,0.027,208.4
2022-04-25T02:22:03,42.805,6.029,-0.02,-0.03,0.004,103.0,102.0,100.0,13.3,1505.2,328.4,-0.7,1.8,2470.931,13.29,0.036,213.7
2022-04-25T02:25:03,42.805,6.029,-0.01,-0.011,0.033,100.0,106.0,103.0,13.3,1505.2,331.5,-0.7,1.9,2471.084,13.29,0.014,222.3
2022-04-25T02:28:03,42.805,6.029,-0.007,-0.029,-0.002,102.0,103.0,100.0,13.4,1505.2,321.7,-0.8,1.8,2471.147,13.29,0.029,193.6
2022-04-25T02:31:03,42.805,6.029,-0.011,-0.017,-0.02,102.0,102.0,100.0,13.4,1505.2,325.9,-0.8,1.8,2471.272,13.29,0.02,212.9
2022-04-25T02:34:03,42.805,6.029,-0.013,-0.008,0.015,105.0,101.0,101.0,13.4,1505.2,332.6,-0.8,1.8,2471.042,13.29,0.015,238.4
2022-04-25T02:37:03,42.805,6.029,-0.008,-0.014,-0.007,99.0,101.0,101.0,13.4,1505.2,327.7,-0.7,1.9,2471.036,13.29,0.016,209.7
2022-04-25T02:40:03,42.805,6.029,0.001,-0.015,0.023,101.0,103.0,101.0,13.4,1505.2,328.3,-0.8,1.8,2470.833,13.3,0.015,176.2
2022-04-25T02:43:03,42.805,6.029,-0.014,-0.003,0.004,105.0,102.0,101.0,13.4,1505.2,330.4,-0.8,1.8,2470.627,13.3,0.014,257.9
2022-04-25T02:46:03,42.805,6.029,-0.011,-0.006,-0.011,102.0,101.0,100.0,13.3,1505.2,325.4,-0.8,1.9,2470.613,13.3,0.012,241.4
2022-04-25T02:49:03,42.805,6.029,0.012,-0.029,-0.017,102.0,102.0,102.0,13.4,1505.2,324.0,-0.8,1.8,2470.598,13.3,0.031,157.5
2022-04-25T02:52:03,42.805,6.029,-0.002,-0.007,-0.011,104.0,101.0,101.0,13.4,1505.2,329.5,-0.8,1.8,2470.634,13.3,0.007,195.9
2022-04-25T02:55:03,42.805,6.029,0.0,-0.009,-0.007,104.0,102.0,102.0,13.3,1505.2,325.9,-0.8,1.8,2470.6,13.3,0.009,180.0
2022-04-25T02:58:03,42.805,6.029,-0.016,-0.018,0.025,103.0,106.0,101.0,13.4,1505.2,332.8,-0.8,1.8,2470.63,13.3,0.024,221.6
2022-04-25T03:04:03,42.805,6.029,0.017,-0.024,-0.01,101.0,105.0,101.0,13.4,1505.2,322.0,-0.7,1.8,2470.69,13.29,0.029,144.7
2022-04-25T03:07:03,42.805,6.029,-0.013,-0.015,0.011,101.0,102.0,99.0,13.4,1505.2,329.4,-0.8,1.8,2470.706,13.29,0.019,220.9
2022-04-25T03:10:03,42.805,6.029,0.008,0.007,0.03,103.0,101.0,101.0,13.4,1505.2,324.4,-0.8,1.8,2470.726,13.3,0.01,48.8
2022-04-25T03:13:03,42.805,6.029,-0.013,-0.032,-0.012,102.0,102.0,100.0,13.4,1505.2,328.2,-0.8,1.8,2470.748,13.3,0.034,202.1
2022-04-25T03:16:03,42.805,6.029,0.014,-0.012,-0.013,102.0,102.0,101.0,13.4,1505.2,325.2,-0.8,1.8,2470.73,13.3,0.018,130.6
2022-04-25T03:19:03,42.805,6.029,-0.023,0.001,0.029,101.0,101.0,99.0,13.4,1505.2,330.9,-0.7,1.8,2470.747,13.3,0.023,272.5
2022-04-25T03:22:03,42.805,6.029,-0.007,-0.012,-0.032,101.0,101.0,101.0,13.4,1505.2,329.6,-0.8,1.8,2470.823,13.3,0.013,210.3
2022-04-25T03:25:03,42.805,6.029,-0.007,-0.018,0.002,101.0,102.0,103.0,13.3,1505.2,332.8,-0.7,1.8,2470.857,13.29,0.019,201.2
2022-04-25T03:28:03,42.805,6.029,0.018,-0.021,-0.015,104.0,100.0,104.0,13.4,1505.2,328.8,-0.8,1.8,2470.844,13.29,0.027,139.4
2022-04-25T03:31:03,42.805,6.029,-0.018,-0.021,0.001,104.0,101.0,101.0,13.4,1505.2,331.7,-0.8,1.8,2470.863,13.29,0.027,220.6
2022-04-25T03:34:03,42.805,6.029,-0.011,-0.012,-0.004,103.0,101.0,100.0,13.3,1505.2,325.5,-0.8,1.8,2470.842,13.29,0.016,222.5
2022-04-25T03:37:03,42.805,6.029,0.012,-0.025,-0.021,101.0,100.0,100.0,13.4,1505.2,326.4,-0.8,1.8,2470.909,13.29,0.027,154.4
2022-04-25T03:40:03,42.805,6.029,-0.006,-0.01,-0.005,101.0,102.0,101.0,13.4,1505.2,327.9,-0.8,1.8,2470.922,13.29,0.011,211.0
2022-04-25T03:43:03,42.805,6.029,0.005,-0.002,0.001,102.0,100.0,100.0,13.4,1505.2,330.9,-0.7,1.8,2470.923,13.29,0.005,111.8
2022-04-25T03:46:03,42.805,6.029,-0.018,0.005,0.001,99.0,101.0,101.0,13.3,1505.2,331.6,-0.8,1.8,2470.902,13.29,0.018,285.5
2022-04-25T03:49:03,42.805,6.029,-0.001,-0.004,0.011,102.0,100.0,102.0,13.4,1505.2,330.1,-0.8,1.8,2470.977,13.29,0.004,194.0
2022-04-25T03:52:03,42.805,6.029,-0.033,-0.015,0.021,104.0,106.0,101.0,13.4,1505.2,327.1,-0.7,1.8,2470.962,13.29,0.036,245.6
2022-04-25T03:55:03,42.805,6.029,-0.012,-0.015,0.0,102.0,103.0,100.0,13.4,1505.2,329.1,-0.8,1.8,2470.979,13.29,0.019,218.7
2022-04-25T03:58:03,42.805,6.029,0.0,-0.011,-0.002,100.0,102.0,100.0,13.4,1505.2,322.2,-0.8,1.8,2470.94,13.29,0.011,180.0
2022-04-25T04:04:03,42.805,6.029,-0.019,-0.016,-0.015,101.0,103.0,101.0,13.3,1505.2,328.8,-0.8,1.8,2471.003,13.29,0.024,229.9
2022-04-25T04:07:03,42.805,6.029,-0.019,-0.016,-0.017,101.0,104.0,99.0,13.3,1505.2,325.0,-0.7,1.8,2470.94,13.29,0.024,229.9
2022-04-25T04:10:03,42.805,6.029,0.003,-0.017,-0.005,103.0,102.0,101.0,13.4,1505.2,331.5,-0.8,1.8,2470.908,13.29,0.017,170.0
2022-04-25T04:13:03,42.805,6.029,-0.024,0.015,0.029,102.0,101.0,102.0,13.3,1505.2,323.1,-0.7,1.8,2470.97,13.29,0.028,302.0
2022-04-25T04:16:03,42.805,6.029,-0.017,-0.02,0.0,101.0,104.0,100.0,13.3,1505.2,329.8,-0.8,1.8,2470.96,13.29,0.026,220.4
2022-04-25T04:19:03,42.805,6.029,-0.007,-0.004,0.005,101.0,101.0,101.0,13.4,1505.2,326.7,-0.7,1.8,2470.937,13.29,0.008,240.3
2022-04-25T04:22:03,42.805,6.029,-0.019,0.004,-0.018,102.0,101.0,101.0,13.4,1505.2,331.1,-0.7,1.8,2470.95,13.29,0.019,281.9
2022-04-25T04:25:03,42.805,6.029,-0.012,-0.017,-0.001,101.0,101.0,101.0,13.4,1505.2,328.4,-0.8,1.8,2470.968,13.29,0.02,215.2
2022-04-25T04:28:03,42.805,6.029,-0.013,-0.01,-0.008,101.0,101.0,101.0,13.3,1505.2,329.8,-0.7,1.8,2470.939,13.29,0.016,232.4
2022-04-25T04:31:03,42.805,6.029,-0.006,-0.005,0.024,102.0,104.0,102.0,13.3,1505.2,323.3,-0.8,1.9,2470.921,13.29,0.007,230.2
2022-04-25T04:34:03,42.805,6.029,0.012,-0.012,0.019,102.0,103.0,101.0,13.4,1505.2,332.4,-0.8,1.8,2470.926,13.29,0.016,135.0
2022-04-25T04:37:03,42.805,6.029,-0.02,-0.017,-0.014,103.0,105.0,100.0,13.4,1505.2,329.1,-0.8,1.8,2470.941,13.29,0.026,229.6
2022-04-25T04:40:03,42.805,6.029,-0.003,-0.01,0.01,103.0,103.0,100.0,13.4,1505.2,330.5,-0.8,1.8,2470.935,13.29,0.01,196.7
2022-04-25T04:43:03,42.805,6.029,-0.007,-0.01,-0.01,102.0,101.0,101.0,13.3,1505.2,329.1,-0.8,1.8,2470.934,13.29,0.012,215.0
2022-04-25T04:46:03,42.805,6.029,-0.006,-0.002,0.0,100.0,102.0,100.0,13.3,1505.2,330.7,-0.8,1.9,2470.945,13.29,0.006,251.6
2022-04-25T04:49:03,42.805,6.029,-0.007,-0.022,-0.012,102.0,102.0,100.0,13.4,1505.2,328.1,-0.8,1.8,2470.96,13.29,0.023,197.6
2022-04-25T04:52:03,42.805,6.029,-0.001,-0.012,0.022,101.0,102.0,104.0,13.4,1505.2,326.8,-0.8,1.9,2470.9,13.29,0.012,184.8
2022-04-25T04:55:03,42.805,6.029,-0.026,-0.019,0.01,101.0,102.0,100.0,13.4,1505.2,326.2,-0.8,1.8,2470.92,13.29,0.032,233.8
2022-04-25T04:58:03,42.805,6.029,-0.001,-0.026,-0.007,102.0,102.0,101.0,13.4,1505.2,329.1,-0.8,1.8,2470.97,13.29,0.026,182.2
2022-04-25T05:04:03,42.805,6.029,-0.001,-0.01,-0.018,101.0,102.0,100.0,13.4,1505.2,329.7,-0.8,1.8,2470.972,13.29,0.01,185.7
2022-04-25T05:07:03,42.805,6.029,0.003,-0.001,0.01,102.0,102.0,100.0,13.3,1505.2,328.9,-0.8,1.8,2470.926,13.29,0.003,108.4
2022-04-25T05:10:03,42.805,6.029,0.0,0.008,0.005,102.0,102.0,101.0,13.4,1505.2,324.4,-0.8,1.8,2470.945,13.29,0.008,0.0
2022-04-25T05:13:03,42.805,6.029,-0.02,-0.002,-0.025,101.0,103.0,101.0,13.4,1505.2,325.0,-0.8,1.8,2470.949,13.29,0.02,264.3
2022-04-25T05:16:03,42.805,6.029,-0.014,-0.019,0.007,103.0,101.0,100.0,13.4,1505.2,326.6,-0.7,1.8,2470.916,13.29,0.023,216.4
2022-04-25T05:19:03,42.805,6.029,-0.019,0.006,0.032,101.0,103.0,100.0,13.4,1505.2,326.8,-0.7,1.8,2470.904,13.29,0.019,287.5
2022-04-25T05:22:03,42.805,6.029,-0.009,-0.009,-0.015,103.0,100.0,101.0,13.3,1505.2,326.8,-0.7,1.8,2470.91,13.29,0.012,225.0
2022-04-25T05:25:03,42.805,6.029,-0.008,-0.005,0.0,101.0,101.0,100.0,13.4,1505.2,322.0,-0.7,1.8,2470.912,13.29,0.009,238.0
2022-04-25T05:28:03,42.805,6.029,-0.02,-0.013,-0.026,102.0,102.0,99.0,13.3,1505.2,326.8,-0.8,1.8,2470.893,13.29,0.023,237.0
2022-04-25T05:31:03,42.805,6.029,-0.021,-0.013,-0.012,102.0,102.0,101.0,13.4,1505.2,325.7,-0.7,1.8,2470.884,13.29,0.024,238.2
2022-04-25T05:34:03,42.805,6.029,-0.02,-0.009,0.002,104.0,106.0,101.0,13.4,1505.2,329.4,-0.8,1.8,2470.875,13.29,0.021,245.8
2022-04-25T05:37:03,42.805,6.029,-0.011,-0.006,0.001,103.0,102.0,100.0,13.3,1505.2,322.6,-0.8,1.8,2470.895,13.29,0.012,241.4
2022-04-25T05:40:03,42.805,6.029,-0.007,-0.013,0.01,102.0,106.0,101.0,13.4,1505.2,329.8,-0.8,1.8,2470.887,13.29,0.014,208.3
2022-04-25T05:43:03,42.805,6.029,-0.01,-0.01,-0.014,103.0,103.0,100.0,13.3,1505.2,323.2,-0.8,1.8,2470.886,13.29,0.014,225.0
2022-04-25T05:46:03,42.805,6.029,-0.01,0.013,0.0,102.0,103.0,101.0,13.3,1505.2,327.3,-0.8,1.8,2470.891,13.29,0.016,322.4
2022-04-25T05:49:03,42.805,6.029,0.0,-0.016,0.006,104.0,102.0,100.0,13.4,1505.2,322.6,-0.8,1.8,2470.892,13.29,0.016,180.0
2022-04-25T05:52:03,42.805,6.029,-0.014,0.002,-0.009,100.0,104.0,103.0,13.4,1505.2,327.7,-0.8,1.8,2470.892,13.29,0.014,278.1
2022-04-25T05:55:03,42.805,6.029,0.01,-0.004,0.008,102.0,103.0,103.0,13.4,1505.2,328.0,-0.8,1.9,2470.885,13.29,0.01,111.8
2022-04-25T05:58:03,42.805,6.029,-0.004,-0.001,-0.018,104.0,102.0,102.0,13.4,1505.2,326.0,-0.7,1.9,2470.877,13.29,0.004,256.0
2022-04-25T06:04:03,42.805,6.029,-0.005,-0.006,-0.014,103.0,103.0,101.0,13.4,1505.2,322.5,-0.8,1.8,2470.893,13.29,0.007,219.8
2022-04-25T06:07:03,42.805,6.029,-0.022,-0.004,-0.022,104.0,102.0,100.0,13.4,1505.2,332.4,-0.8,1.8,2470.874,13.29,0.022,259.7
2022-04-25T06:10:03,42.805,6.029,-0.013,-0.008,-0.011,107.0,102.0,100.0,13.4,1505.2,328.6,-0.7,1.8,2470.889,13.29,0.015,238.4
2022-04-25T06:13:03,42.805,6.029,-0.003,-0.013,0.002,104.0,103.0,102.0,13.4,1505.2,332.4,-0.8,1.8,2470.873,13.29,0.013,193.0
2022-04-25T06:16:03,42.805,6.029,-0.022,-0.017,0.007,105.0,102.0,101.0,13.3,1505.2,323.6,-0.8,1.8,2470.868,13.29,0.027,232.3
2022-04-25T06:19:03,42.805,6.029,0.0,-0.006,0.023,104.0,103.0,101.0,13.4,1505.2,332.4,-0.8,1.8,2470.84,13.29,0.006,180.0
2022-04-25T06:22:03,42.805,6.029,-0.017,0.016,0.009,102.0,103.0,101.0,13.4,1505.2,330.0,-0.7,1.8,2470.843,13.29,0.023,313.3
2022-04-25T06:25:03,42.805,6.029,0.004,0.0,0.006,103.0,103.0,102.0,13.3,1505.2,327.7,-0.8,1.8,2470.811,13.29,0.004,90.0
2022-04-25T06:28:03,42.805,6.029,-0.021,0.009,-0.026,104.0,104.0,102.0,13.3,1505.2,327.2,-0.8,1.8,2470.812,13.29,0.022,293.2
2022-04-25T06:31:03,42.805,6.029,-0.017,-0.006,0.015,105.0,104.0,102.0,13.4,1505.2,328.6,-0.8,1.8,2470.816,13.29,0.018,250.6
2022-04-25T06:34:03,42.805,6.029,0.003,-0.02,-0.014,104.0,104.0,102.0,13.4,1505.2,325.5,-0.8,1.8,2470.826,13.29,0.02,171.5
2022-04-25T06:37:03,42.805,6.029,-0.021,-0.01,-0.007,104.0,103.0,101.0,13.4,1505.2,327.0,-0.8,1.8,2470.96,13.29,0.023,244.5
2022-04-25T06:40:03,42.805,6.029,0.0,-0.016,-0.011,105.0,103.0,101.0,13.4,1505.2,326.5,-0.7,1.8,2470.868,13.29,0.016,180.0
2022-04-25T06:43:03,42.805,6.029,-0.022,-0.021,-0.007,103.0,103.0,102.0,13.4,1505.2,327.1,-0.8,1.8,2470.804,13.29,0.03,226.3
2022-04-25T06:46:03,42.805,6.029,0.004,-0.002,0.0,103.0,102.0,101.0,13.4,1505.2,327.6,-0.8,1.8,2470.702,13.29,0.004,116.6
2022-04-25T06:49:03,42.805,6.029,-0.004,0.0,-0.023,103.0,103.0,101.0,13.3,1505.2,321.6,-0.8,1.8,2470.708,13.29,0.004,270.0
2022-04-25T06:52:03,42.805,6.029,-0.017,-0.008,0.004,103.0,103.0,101.0,13.4,1505.2,323.9,-0.8,1.8,2470.819,13.29,0.018,244.8
2022-04-25T06:55:03,42.805,6.029,-0.002,0.006,-0.023,103.0,103.0,102.0,13.3,1505.2,329.3,-0.8,1.8,2470.649,13.29,0.006,341.6
2022-04-25T06:58:03,42.805,6.029,-0.006,0.006,-0.033,103.0,104.0,101.0,13.4,1505.2,331.3,-0.7,1.8,2470.689,13.29,0.008,315.0
2022-04-25T07:04:03,42.805,6.029,-0.003,0.007,-0.02,104.0,104.0,102.0,13.3,1505.2,323.9,-0.8,1.8,2470.581,13.29,0.007,336.8
2022-04-25T07:07:03,42.805,6.029,-0.015,-0.018,0.007,104.0,104.0,102.0,13.4,1505.2,324.7,-0.8,1.8,2470.62,13.29,0.023,219.8
2022-04-25T07:10:03,42.805,6.029,-0.011,-0.007,0.011,105.0,103.0,101.0,13.4,1505.2,325.5,-0.8,1.9,2470.535,13.29,0.013,237.5
2022-04-25T07:13:03,42.805,6.029,-0.003,0.024,0.012,104.0,105.0,102.0,13.4,1505.2,330.7,-0.8,1.8,2470.544,13.29,0.024,352.9
2022-04-25T07:16:03,42.805,6.029,-0.007,0.013,0.024,104.0,104.0,102.0,13.3,1505.2,331.4,-0.8,1.8,2470.563,13.29,0.014,331.7
2022-04-25T07:19:03,42.805,6.029,-0.01,-0.007,0.006,106.0,103.0,102.0,13.4,1505.2,328.5,-0.8,1.8,2470.557,13.29,0.012,235.0
2022-04-25T07:22:03,42.805,6.029,-0.008,-0.002,0.004,104.0,103.0,101.0,13.4,1505.2,328.7,-0.8,1.8,2470.528,13.29,0.008,256.0
2022-04-25T07:25:03,42.805,6.029,-0.012,-0.001,0.019,105.0,103.0,101.0,13.4,1505.2,323.5,-0.8,1.8,2470.546,13.29,0.012,265.2
2022-04-25T07:28:03,42.805,6.029,-0.018,0.0,-0.009,103.0,102.0,101.0,13.4,1505.2,325.5,-0.8,1.8,2470.517,13.29,0.018,270.0
2022-04-25T07:31:03,42.805,6.029,0.016,0.008,0.008,104.0,103.0,101.0,13.4,1505.2,329.4,-0.8,1.8,2470.535,13.29,0.017,63.4
2022-04-25T07:34:03,42.805,6.029,-0.005,-0.001,0.02,104.0,103.0,101.0,13.3,1505.2,328.5,-0.8,1.8,2470.537,13.29,0.005,258.7
2022-04-25T07:37:03,42.805,6.029,-0.009,-0.006,0.004,103.0,101.0,102.0,13.4,1505.2,327.1,-0.8,1.8,2470.547,13.29,0.01,236.3
2022-04-25T07:40:03,42.805,6.029,-0.014,-0.024,-0.015,104.0,104.0,101.0,13.4,1505.2,321.5,-0.7,1.8,2470.555,13.29,0.027,210.3
2022-04-25T07:43:03,42.805,6.029,-0.006,-0.015,0.0,103.0,102.0,101.0,13.3,1505.2,324.4,-0.8,1.9,2470.527,13.29,0.016,201.8
2022-04-25T07:46:03,42.805,6.029,0.006,0.0,-0.015,103.0,104.0,102.0,13.4,1505.2,326.2,-0.8,1.8,2470.541,13.29,0.006,90.0
2022-04-25T07:49:03,42.805,6.029,0.005,-0.003,0.019,101.0,103.0,102.0,13.4,1505.2,329.1,-0.7,1.8,2470.602,13.29,0.005,121.0
2022-04-25T07:52:03,42.805,6.029,0.004,-0.023,0.011,103.0,102.0,102.0,13.4,1505.2,321.3,-0.8,1.8,2470.605,13.29,0.023,170.1
2022-04-25T07:55:03,42.805,6.029,-0.007,-0.014,-0.012,104.0,104.0,101.0,13.4,1505.2,325.5,-0.7,1.8,2470.619,13.29,0.015,206.6
2022-04-25T07:58:03,42.805,6.029,-0.035,0.001,-0.009,103.0,102.0,102.0,13.4,1505.2,321.9,-0.8,1.8,2470.628,13.29,0.035,271.6
2022-04-25T08:04:03,42.805,6.029,-0.023,-0.012,0.011,103.0,103.0,101.0,13.4,1505.2,326.6,-0.8,1.8,2470.743,13.29,0.025,242.4
2022-04-25T08:07:03,42.805,6.029,-0.008,-0.002,-0.004,103.0,102.0,101.0,13.4,1505.2,328.0,-0.8,1.9,2470.683,13.29,0.008,256.0
2022-04-25T08:10:03,42.805,6.029,-0.026,-0.006,-0.016,104.0,103.0,101.0,13.3,1505.2,328.7,-0.8,1.8,2470.715,13.29,0.026,257.0
2022-04-25T08:13:03,42.805,6.029,-0.006,0.003,-0.015,103.0,102.0,101.0,13.3,1505.2,327.0,-0.8,1.8,2470.701,13.29,0.006,296.6
2022-04-25T08:16:03,42.805,6.029,-0.002,-0.015,-0.005,104.0,103.0,104.0,13.4,1505.2,325.3,-0.8,1.8,2470.714,13.29,0.015,187.6
2022-04-25T08:19:03,42.805,6.029,-0.008,-0.007,-0.005,104.0,102.0,103.0,13.3,1505.2,329.7,-0.8,1.8,2470.72,13.29,0.01,228.8
2022-04-25T08:22:03,42.805,6.029,-0.018,0.011,0.02,105.0,101.0,102.0,13.4,1505.2,326.8,-0.7,1.8,2470.757,13.29,0.021,301.4
2022-04-25T08:25:03,42.805,6.029,-0.002,0.008,0.021,102.0,103.0,101.0,13.4,1505.2,329.2,-0.8,1.8,2470.736,13.29,0.008,346.0
2022-04-25T08:28:03,42.805,6.029,-0.016,-0.012,-0.01,104.0,102.0,101.0,13.3,1505.2,323.3,-0.7,1.8,2470.736,13.29,0.02,233.1
2022-04-25T08:31:03,42.805,6.029,0.012,-0.019,-0.007,106.0,104.0,103.0,13.4,1505.2,330.3,-0.8,1.8,2470.732,13.29,0.022,147.7
2022-04-25T08:34:03,42.805,6.029,0.012,-0.02,0.005,105.0,104.0,101.0,13.4,1505.2,327.7,-0.8,1.8,2470.748,13.29,0.023,149.0
2022-04-25T08:37:03,42.805,6.029,-0.033,0.0,0.002,102.0,102.0,102.0,13.4,1505.2,328.3,-0.7,1.8,2470.721,13.29,0.033,270.0
2022-04-25T08:40:03,42.805,6.029,-0.003,-0.004,0.044,102.0,102.0,102.0,13.4,1505.2,331.9,-0.8,1.8,2470.767,13.29,0.005,216.9
2022-04-25T08:43:03,42.805,6.029,-0.024,-0.008,-0.01,104.0,102.0,101.0,13.4,1505.2,332.1,-0.8,1.8,2470.749,13.29,0.025,251.6
2022-04-25T08:46:03,42.805,6.029,-0.015,0.011,0.002,102.0,103.0,101.0,13.4,1505.2,329.5,-0.7,1.8,2470.756,13.29,0.018,306.3
2022-04-25T08:49:03,42.805,6.029,-0.011,0.017,0.004,103.0,103.0,101.0,13.3,1505.2,330.3,-0.8,1.8,2470.773,13.29,0.02,327.1
2022-04-25T08:52:03,42.805,6.029,0.001,-0.001,0.002,103.0,104.0,101.0,13.4,1505.2,323.0,-0.8,1.8,2470.778,13.29,0.001,135.0
2022-04-25T08:55:03,42.805,6.029,-0.026,-0.001,-0.004,103.0,103.0,101.0,13.4,1505.2,329.3,-0.7,1.8,2470.778,13.29,0.026,267.8
2022-04-25T08:58:03,42.805,6.029,-0.024,-0.015,-0.007,104.0,102.0,101.0,13.4,1505.2,322.9,-0.7,1.8,2470.751,13.29,0.028,238.0
2022-04-25T09:04:03,42.805,6.029,0.0,-0.012,0.032,104.0,102.0,101.0,13.3,1505.2,330.3,-0.7,1.8,2470.754,13.29,0.012,180.0
2022-04-25T09:07:03,42.805,6.029,-0.018,-0.016,0.009,104.0,102.0,101.0,13.4,1505.2,322.7,-0.8,1.8,2470.691,13.29,0.024,228.4
2022-04-25T09:10:03,42.805,6.029,-0.013,-0.007,0.004,102.0,103.0,101.0,13.4,1505.2,331.5,-0.8,1.8,2470.731,13.29,0.014,241.7
2022-04-25T09:13:03,42.805,6.029,0.004,-0.006,-0.007,102.0,103.0,102.0,13.3,1505.2,321.9,-0.7,1.8,2470.724,13.29,0.007,146.3
2022-04-25T09:16:03,42.805,6.029,-0.014,-0.017,0.003,102.0,102.0,101.0,13.3,1505.2,325.0,-0.8,1.8,2470.724,13.29,0.022,219.5
2022-04-25T09:19:03,42.805,6.029,-0.017,-0.012,-0.005,103.0,102.0,101.0,13.4,1505.2,331.1,-0.8,1.8,2470.685,13.29,0.02,234.8
2022-04-25T09:22:03,42.805,6.029,-0.027,0.0,-0.02,103.0,102.0,102.0,13.3,1505.2,328.3,-0.7,1.8,2470.696,13.29,0.026,270.0
2022-04-25T09:25:03,42.805,6.029,-0.003,-0.007,-0.012,104.0,103.0,100.0,13.4,1505.2,323.3,-0.7,1.8,2470.723,13.29,0.007,203.2
2022-04-25T09:28:03,42.805,6.029,-0.009,0.008,-0.01,103.0,103.0,101.0,13.4,1505.2,324.7,-0.8,1.8,2470.719,13.29,0.012,311.6
2022-04-25T09:31:03,42.805,6.029,0.001,0.001,0.031,104.0,102.0,101.0,13.4,1505.2,327.8,-0.8,1.8,2470.702,13.29,0.001,45.0
2022-04-25T09:34:03,42.805,6.029,-0.018,-0.012,-0.003,106.0,100.0,102.0,13.3,1505.2,332.6,-0.7,1.8,2470.686,13.29,0.021,236.3
2022-04-25T09:37:03,42.805,6.029,-0.006,-0.022,-0.012,103.0,101.0,101.0,13.4,1505.2,329.4,-0.7,1.8,2470.706,13.29,0.022,195.3
2022-04-25T09:40:03,42.805,6.029,-0.006,-0.006,0.009,103.0,104.0,101.0,13.3,1505.2,325.8,-0.8,1.9,2470.715,13.29,0.008,225.0
2022-04-25T09:43:03,42.805,6.029,-0.003,-0.007,0.0,103.0,103.0,101.0,13.4,1505.2,328.2,-0.8,1.9,2470.715,13.29,0.007,203.2
2022-04-25T09:46:03,42.805,6.029,-0.022,0.012,0.008,102.0,103.0,102.0,13.4,1505.2,332.3,-0.8,1.9,2470.724,13.29,0.025,298.6
2022-04-25T09:49:03,42.805,6.029,-0.028,-0.008,0.013,104.0,103.0,102.0,13.4,1505.2,323.6,-0.7,1.8,2470.726,13.29,0.029,254.1
2022-04-25T09:52:03,42.805,6.029,-0.03,0.009,0.03,104.0,103.0,102.0,13.3,1505.2,324.6,-0.8,1.8,2470.708,13.29,0.031,286.7
2022-04-25T09:55:03,42.805,6.029,-0.001,0.003,0.003,103.0,103.0,103.0,13.4,1505.2,324.7,-0.8,1.8,2470.725,13.29,0.003,341.6